{"data":{"norad_id":51850,"intl_designator":"2022-021A","name":"GOES 18","alt_names":[],"object_type":"PAYLOAD","status":"ACTIVE","operator":null,"country":"US","launch_date":"2022-03-01","launch_site_code":"AFETR","launch_vehicle":null,"mission":null,"orbit_class":"UNKNOWN","rcs_meters":null,"size_class":null,"mass_kg":null,"dimensions":null,"purposes":["comms","earth_obs"],"wikipedia_slug":null,"has_3d_model":false,"image_url":null,"decayed_at":null,"tle_current":{"epoch":"2026-09-20T05:20:34.144224Z","epoch_age_seconds":38511,"freshness":"FRESH","line1":"1 51850U 22021A   26263.22261741  .00000092  00000+0  00000+0 0  9999","line2":"2 51850   0.0407 341.6626 0000287 235.3986  85.2122  1.00272840  7543","mean_motion":1.0027284,"eccentricity":2.87e-5,"inclination_deg":0.0407,"raan_deg":341.6626,"arg_perigee_deg":235.3986,"mean_anomaly_deg":85.2122,"bstar":0,"rev_number":754,"period_min":1436.0817944321,"perigee_km":35785.089089667,"apogee_km":35787.509328305,"semimajor_km":42164.436208986,"source":"CELESTRAK","updated_at":"2026-09-20T09:00:35.303299Z"}}}